Weather History for New York JFK, NY

Change the Weather History Date:

Monday, October 28, 2013

  Actual Average Record
Temperature  
Mean Temperature 50 °F 53 °F  
Max Temperature 60 °F 61 °F 76 °F (2010)
Min Temperature 40 °F 46 °F 30 °F (1976)
Degree Days  
Heating Degree Days 15 12  
Month to date heating degree days 155 223  
Since 1 July heating degree days 200 262  
Cooling Degree Days 0 0  
Month to date cooling degree days 39 12  
Year to date cooling degree days 1111 1003  
Moisture  
Dew Point 31 °F    
Average Humidity 54    
Maximum Humidity 79    
Minimum Humidity 29    
Precipitation  
Precipitation 0.00 in 0.11 in 1.91 in (2008)
Month to date precipitation 0.28 3.30  
Year to date precipitation 28.39 35.76  
Snow  
Snow 0.00 in 0.00 in 0.00 in ()
Month to date snowfall 0.0 0.0  
Since 1 July snowfall 0.0 0.0  
Snow Depth 0.00 in    
Sea Level Pressure  
Sea Level Pressure 30.22 in    
Wind  
Wind Speed 9 mph (West)    
Max Wind Speed 16 mph    
Max Gust Speed 20 mph    
Visibility 10 miles    
Events      
T = Trace of Precipitation, MM = Missing Value Source: NWS Daily Summary

Daily Weather History Graph

Daily Weather History Graph

Search for Another Location

Airport:

Trip Planner

Search our weather history database for the weather conditions in past years. The results will help you decide how hot, cold, wet, or windy it might be!

Date:

Astronomy

Oct. 28, 2013 Rise Set
Actual Time 7:20 AM EDT 5:56 PM EDT
Civil Twilight 6:52 AM EDT 6:24 PM EDT
Nautical Twilight 6:20 AM EDT 6:56 PM EDT
Astronomical Twilight 5:48 AM EDT 7:28 PM EDT
Moon 1:09 AM EDT 2:38 PM EDT
Length of Visible Light 11h 31m
Length of Day
10h 35m
Waning Crescent, 34% of the Moon is Illuminated
Oct 28
Waning Crescent
Nov 3
New
Nov 10
First Quarter
Nov 17
Full
Nov 25
Last Quarter

Hourly Weather History & Observations

Time (EDT) Temp. Windchill Dew Point Humidity Pressure Visibility Wind Dir Wind Speed Gust Speed Precip Events Conditions
12:51 AM 48.0 °F - 28.9 °F 48% 30.14 in 10.0 mi WNW 9.2 mph - N/A   Clear
1:51 AM 46.0 °F 42.5 °F 28.9 °F 51% 30.15 in 10.0 mi WNW 6.9 mph - N/A   Clear
2:51 AM 44.1 °F 42.5 °F 28.9 °F 55% 30.15 in 10.0 mi WNW 3.5 mph - N/A   Clear
3:51 AM 42.1 °F 37.7 °F 30.0 °F 62% 30.16 in 10.0 mi SW 6.9 mph - N/A   Clear
4:51 AM 41.0 °F 36.4 °F 32.0 °F 70% 30.16 in 10.0 mi West 6.9 mph - N/A   Clear
5:51 AM 42.1 °F 39.2 °F 33.1 °F 70% 30.17 in 10.0 mi West 4.6 mph - N/A   Clear
6:51 AM 41.0 °F 35.8 °F 34.0 °F 76% 30.19 in 10.0 mi SW 8.1 mph - N/A   Partly Cloudy
7:51 AM 39.9 °F 35.8 °F 34.0 °F 79% 30.22 in 10.0 mi SW 5.8 mph - N/A   Scattered Clouds
8:51 AM 42.1 °F 37.7 °F 36.0 °F 79% 30.24 in 10.0 mi SW 6.9 mph - N/A   Scattered Clouds
9:51 AM 45.0 °F 39.7 °F 34.0 °F 65% 30.25 in 10.0 mi WSW 10.4 mph - N/A   Partly Cloudy
10:51 AM 52.0 °F - 32.0 °F 47% 30.25 in 10.0 mi WSW 12.7 mph - N/A   Scattered Clouds
11:51 AM 54.0 °F - 30.0 °F 40% 30.25 in 10.0 mi SW 15.0 mph - N/A   Scattered Clouds
12:51 PM 57.9 °F - 34.0 °F 41% 30.22 in 10.0 mi WSW 13.8 mph - N/A   Partly Cloudy
1:51 PM 60.1 °F - 33.1 °F 36% 30.20 in 10.0 mi West 16.1 mph - N/A   Partly Cloudy
2:51 PM 60.4 °F - 28.9 °F 30% 30.20 in 10.0 mi West 15.0 mph 19.6 mph N/A   Mostly Cloudy
3:51 PM 60.3 °F - 28.9 °F 31% 30.19 in 10.0 mi West 13.8 mph - N/A   Mostly Cloudy
4:51 PM 60.4 °F - 28.9 °F 30% 30.20 in 10.0 mi WNW 9.2 mph - N/A   Mostly Cloudy
5:51 PM 59.2 °F - 31.1 °F 35% 30.22 in 10.0 mi West 9.2 mph - N/A   Mostly Cloudy
6:51 PM 57.2 °F - 29.1 °F 34% 30.25 in 10.0 mi West 6.9 mph - N/A   Mostly Cloudy
7:51 PM 57.0 °F - 27.9 °F 33% 30.27 in 10.0 mi WNW 8.1 mph - N/A   Mostly Cloudy
8:51 PM 55.8 °F - 33.1 °F 42% 30.29 in 10.0 mi North 8.1 mph - N/A   Mostly Cloudy
9:51 PM 54.9 °F - 33.1 °F 44% 30.30 in 10.0 mi North 6.9 mph - N/A   Mostly Cloudy
10:51 PM 55.0 °F - 33.1 °F 43% 30.31 in 10.0 mi North 6.9 mph - N/A   Mostly Cloudy
11:51 PM 51.1 °F - 34.0 °F 52% 30.32 in 10.0 mi NNE 8.1 mph - N/A   Overcast